Location: Ash Shall?l al Awwal
(24.0167°N, 32.8667°E)
Time: 18:27:11
(UTC+00:00)

Meteor 1-19 Rocket - Pass Details

Date: 02 March 2021
Orbit: 807 x 928 km, 81.2° (Epoch: 10 April)

Event Time Altitude Azimuth Distance (km) Brightness Sun altitude
Rises 17:12:14 0° 350° (N) 3,522 7.6 -19.1°
Reaches altitude 10° 17:14:44 10° 349° (N) 2,563 6.8 -19.7°
Maximum altitude 17:20:33 75° 265° (W) 902 4.4 -21.0°
Drops below altitude 10° 17:26:10 10° 180° (S) 2,472 6.6 -22.3°
Sets 17:28:32 0° 179° (S) 3,388 7.3 -22.9°
